Home > Weather > Herford > Past weeks

Flag for Germany Past Weather in Herford, North Rhine-Westphalia, Germany — Yesterday and Last 2 Weeks

Now
64 °F

Passing clouds.


Feels Like: 64 °F
Forecast: 57 / 67 °F
Wind: 2 mph from East

Location: Bueckeburg

Current Time: Jun 28, 2016 at 1:32:39 PM

Latest Report: Jun 28, 2016 at 12:20 PM


Visibility: N/A

Pressure: 30.07 "Hg

Humidity: 52%

Dew Point: 46 °F

Location of HerfordLocation

Past Weather in Herford — Graph

°F

Herford Temperature Yesterday

Maximum temperature yesterday: 70 °F (at 2:20 PM)
Minimum temperature yesterday: 54 °F (at 12:20 AM)
Average temperature yesterday: 61 °F

High & Low Weather Summary for the Past Weeks

 TemperatureHumidityPressure
High90 °F (Jun 23, 4:20 PM)100% (Jun 13, 8:20 PM)30.24 "Hg (Jun 13, 8:20 PM)
Low50 °F (Jun 20, 1:20 AM)41% (Jun 23, 5:20 PM)29.45 "Hg (Jun 14, 4:20 PM)
Average64 °F80%29.90 "Hg
* Reported Jun 13 12:01 PM — Jun 28 12:20 PM, Herford, Weather by CustomWeather, © 2016

Note: Actual official high and low records may vary slightly from our data, if they occured in-between our weather recording intervals... More about our weather records

Advertising

Herford Weather History for the Previous 24 Hours

Scroll right to see more
 ConditionsComfort  
Time TempWeatherWind HumidityBarometerVisibility
12:20 PM
Tue, Jun 28
64 °FPassing clouds.2 mph52%30.07 "HgN/A
11:20 AM64 °FScattered clouds.3 mph56%30.09 "HgN/A
10:20 AM61 °FPassing clouds.3 mph63%30.09 "HgN/A
9:20 AM59 °FPassing clouds.5 mph68%30.09 "HgN/A
8:20 AM59 °FScattered clouds.5 mph72%30.09 "HgN/A
7:20 AM55 °FFog.5 mph88%30.09 "HgN/A
6:20 AM54 °FFog.5 mph94%30.09 "HgN/A
5:20 AM52 °FFog.No wind94%30.09 "HgN/A
4:20 AM54 °FPartly cloudy.6 mph94%30.07 "HgN/A
3:20 AM54 °FPartly cloudy.5 mph94%30.07 "HgN/A
2:20 AM57 °FPassing clouds.7 mph94%30.07 "HgN/A
1:20 AM59 °FPartly cloudy.9 mph94%30.07 "HgN/A
12:20 AM59 °FPartly cloudy.8 mph100%30.07 "HgN/A
11:20 PM
Mon, Jun 27
59 °FPartly cloudy.9 mph100%30.04 "HgN/A
10:54 PM61 °FLight rain. Partly cloudy.8 mph94%30.04 "Hg5 mi
10:20 PM61 °FRain. Fog.3 mph94%30.01 "Hg3 mi
9:20 PM61 °FDrizzle. Fog.5 mph94%30.01 "Hg2 mi
8:20 PM63 °FBroken clouds.9 mph88%30.01 "HgN/A
7:20 PM63 °FBroken clouds.10 mph88%30.01 "HgN/A
6:20 PM66 °FLight rain. Partly sunny.13 mph68%30.01 "HgN/A
5:20 PM66 °FPartly sunny.12 mph68%30.01 "HgN/A
4:20 PM68 °FPartly sunny.12 mph60%30.01 "HgN/A
3:20 PM68 °FPartly sunny.14 mph56%30.01 "HgN/A
2:20 PM70 °FScattered clouds.15 mph50%30.01 "HgN/A
1:20 PM68 °FScattered clouds.12 mph53%30.04 "HgN/A
Weather by CustomWeather, © 2016

See weather overviewHow to use our weather pages